Weather History for Sterling, IL

Change the Weather History Date:

Friday, November 16, 2012

  Actual Average Record
Temperature  
Mean Temperature 40 °F -  
Max Temperature 55 °F 45 °F 59 °F (2013)
Min Temperature 26 °F 29 °F 12 °F (1997)
Degree Days  
Heating Degree Days 24    
Moisture  
Dew Point 30 °F    
Average Humidity 74    
Maximum Humidity 93    
Minimum Humidity 47    
Precipitation  
Precipitation 0.00 in - - ()
Sea Level Pressure  
Sea Level Pressure 30.42 in    
Wind  
Wind Speed 1 mph (ESE)    
Max Wind Speed 7 mph    
Max Gust Speed -    
Visibility 9 miles    
Events      
Averages and records for this station are not official NWS values.
T = Trace of Precipitation, MM = Missing Value Source: NWS Daily Summary

Daily Weather History Graph

Daily Weather History Graph

Search for Another Location

Airport:

Trip Planner

Search our weather history database for the weather conditions in past years. The results will help you decide how hot, cold, wet, or windy it might be!

Date:

Astronomy

Nov. 16, 2012 Rise Set
Actual Time 6:49 AM CST 4:36 PM CST
Civil Twilight 6:19 AM CST 5:06 PM CST
Nautical Twilight 5:46 AM CST 5:40 PM CST
Astronomical Twilight 5:13 AM CST 6:13 PM CST
Moon 9:45 AM CST (11/16) 7:36 PM CST (11/16)
Length of Visible Light 10h 47m
Length of Day
9h 47m
Waxing Crescent, 12% of the Moon is Illuminated
Nov 16
Waxing Crescent
Nov 20
First Quarter
Nov 28
Full
Dec 6
Last Quarter
Dec 13
New

Hourly Weather History & Observations

Time (CST) Temp. Windchill Dew Point Humidity Pressure Visibility Wind Dir Wind Speed Gust Speed Precip Events Conditions
12:15 AM 28.4 °F - 24.8 °F 86% 30.36 in 10.0 mi Calm Calm - N/A   Clear
12:35 AM 28.4 °F - 24.8 °F 86% 30.36 in - Calm Calm - N/A   Unknown
12:55 AM 30.2 °F - 24.8 °F 80% 30.36 in - Calm Calm - N/A   Clear
1:35 AM 30.2 °F - 24.8 °F 80% 30.36 in - Calm Calm - N/A   Clear
1:55 AM 30.2 °F - 24.8 °F 80% 30.37 in 10.0 mi Calm Calm - N/A   Clear
2:15 AM 28.4 °F - 23.0 °F 80% 30.37 in - Calm Calm - N/A   Clear
2:35 AM 28.4 °F - 24.8 °F 86% 30.38 in - Calm Calm - N/A   Unknown
2:55 AM 28.4 °F - 26.6 °F 93% 30.38 in - Calm Calm - N/A   Unknown
3:15 AM 28.4 °F - 24.8 °F 86% 30.38 in 10.0 mi Calm Calm - N/A   Clear
3:35 AM 28.4 °F - 24.8 °F 86% 30.38 in 10.0 mi Calm Calm - N/A   Clear
3:55 AM 28.4 °F 24.6 °F 24.8 °F 86% 30.38 in 10.0 mi East 3.5 mph - N/A   Clear
4:15 AM 26.6 °F - 23.0 °F 86% 30.38 in 10.0 mi Calm Calm - N/A   Clear
4:35 AM 28.4 °F - 23.0 °F 80% 30.38 in 10.0 mi Calm Calm - N/A   Clear
4:55 AM 28.4 °F - 24.8 °F 86% 30.39 in 10.0 mi Calm Calm - N/A   Clear
5:15 AM 26.6 °F - 21.2 °F 80% 30.39 in - Calm Calm - N/A   Clear
5:35 AM 26.6 °F - 23.0 °F 86% 30.40 in - Calm Calm - N/A   Unknown
5:55 AM 28.4 °F - 24.8 °F 86% 30.40 in - Calm Calm - N/A   Unknown
6:15 AM 26.6 °F - 23.0 °F 86% 30.41 in - Calm Calm - N/A   Unknown
6:35 AM 26.6 °F - 24.8 °F 93% 30.41 in - Calm Calm - N/A   Unknown
6:55 AM 28.4 °F - 24.8 °F 86% 30.41 in - Calm Calm - N/A   Unknown
7:15 AM 28.4 °F 24.6 °F 24.8 °F 86% 30.42 in 4.0 mi ESE 3.5 mph - N/A   Clear
7:35 AM 28.4 °F - 26.6 °F 93% 30.43 in 5.0 mi Calm Calm - N/A   Clear
7:55 AM 30.2 °F - 26.6 °F 86% 30.43 in - Calm Calm - N/A   Unknown
8:15 AM 33.8 °F - 26.6 °F 75% 30.44 in - Calm Calm - N/A   Clear
8:55 AM 35.6 °F 32.8 °F 28.4 °F 75% 30.44 in 8.0 mi East 3.5 mph - N/A   Clear
9:15 AM 37.4 °F 33.8 °F 30.2 °F 75% 30.45 in 9.0 mi East 4.6 mph - N/A   Clear
9:35 AM 41.0 °F 37.1 °F 30.2 °F 65% 30.45 in 10.0 mi East 5.8 mph - N/A   Clear
9:55 AM 42.8 °F 39.3 °F 32.0 °F 66% 30.45 in 10.0 mi East 5.8 mph - N/A   Clear
10:15 AM 42.8 °F 39.3 °F 32.0 °F 66% 30.46 in 10.0 mi East 5.8 mph - N/A   Clear
10:35 AM 44.6 °F 40.7 °F 33.8 °F 66% 30.46 in 9.0 mi ESE 6.9 mph - N/A   Clear
10:55 AM 46.4 °F 45.2 °F 33.8 °F 62% 30.46 in 10.0 mi East 3.5 mph - N/A   Clear
11:15 AM 46.4 °F - 33.8 °F 62% 30.46 in 10.0 mi Calm Calm - N/A   Clear
11:35 AM 48.2 °F - 33.8 °F 58% 30.45 in 10.0 mi Calm Calm - N/A   Clear
11:55 AM 48.2 °F - 33.8 °F 58% 30.44 in 10.0 mi East 3.5 mph - N/A   Clear
12:15 PM 50.0 °F - 35.6 °F 58% 30.44 in 10.0 mi ESE 3.5 mph - N/A   Clear
12:35 PM 51.8 °F - 33.8 °F 50% 30.44 in 10.0 mi ENE 3.5 mph - N/A   Clear
12:55 PM 53.6 °F - 35.6 °F 51% 30.44 in 10.0 mi Calm Calm - N/A   Clear
1:15 PM 53.6 °F - 35.6 °F 51% 30.43 in 10.0 mi East 3.5 mph - N/A   Clear
1:35 PM 53.6 °F - 35.6 °F 51% 30.43 in 10.0 mi Calm Calm - N/A   Clear
1:55 PM 55.4 °F - 35.6 °F 47% 30.43 in 10.0 mi Calm Calm - N/A   Clear
2:15 PM 55.4 °F - 35.6 °F 47% 30.43 in 10.0 mi Calm Calm - N/A   Clear
2:35 PM 53.6 °F - 35.6 °F 51% 30.43 in 10.0 mi Calm Calm - N/A   Clear
2:55 PM 55.4 °F - 35.6 °F 47% 30.43 in 10.0 mi Calm Calm - N/A   Clear
3:15 PM 53.6 °F - 35.6 °F 51% 30.43 in 10.0 mi Calm Calm - N/A   Clear
3:35 PM 53.6 °F - 35.6 °F 51% 30.43 in 10.0 mi Calm Calm - N/A   Clear
3:55 PM 51.8 °F - 35.6 °F 54% 30.43 in 10.0 mi Calm Calm - N/A   Clear
4:15 PM 48.2 °F - 35.6 °F 62% 30.43 in 10.0 mi Calm Calm - N/A   Clear
4:35 PM 46.4 °F - 33.8 °F 62% 30.43 in 10.0 mi Calm Calm - N/A   Clear
4:55 PM 44.6 °F - 33.8 °F 66% 30.43 in 10.0 mi Calm Calm - N/A   Clear
5:15 PM 42.8 °F - 33.8 °F 70% 30.44 in 10.0 mi Calm Calm - N/A   Clear
5:35 PM 41.0 °F - 32.0 °F 70% 30.44 in 10.0 mi Calm Calm - N/A   Clear
5:55 PM 42.8 °F - 33.8 °F 70% 30.44 in 10.0 mi Calm Calm - N/A   Clear
6:15 PM 39.2 °F 37.0 °F 33.8 °F 81% 30.44 in 9.0 mi East 3.5 mph - N/A   Clear
6:35 PM 37.4 °F 34.9 °F 30.2 °F 75% 30.45 in 9.0 mi East 3.5 mph - N/A   Clear
6:55 PM 35.6 °F 32.8 °F 32.0 °F 87% 30.44 in 7.0 mi East 3.5 mph - N/A   Clear
7:15 PM 37.4 °F 34.9 °F 33.8 °F 87% 30.44 in 9.0 mi East 3.5 mph - N/A   Clear
7:35 PM 37.4 °F 33.8 °F 32.0 °F 81% 30.43 in 8.0 mi East 4.6 mph - N/A   Clear
7:55 PM 35.6 °F 31.7 °F 32.0 °F 87% 30.43 in 7.0 mi ESE 4.6 mph - N/A   Clear
8:15 PM 35.6 °F 29.9 °F 32.0 °F 87% 30.43 in 9.0 mi SE 6.9 mph - N/A   Clear
8:35 PM 33.8 °F 28.6 °F 30.2 °F 87% 30.43 in 10.0 mi ESE 5.8 mph - N/A   Clear
8:55 PM 33.8 °F 27.7 °F 30.2 °F 87% 30.43 in 9.0 mi ESE 6.9 mph - N/A   Clear
9:15 PM 33.8 °F 27.7 °F 28.4 °F 81% 30.43 in 10.0 mi SE 6.9 mph - N/A   Clear
9:55 PM 39.2 °F 34.2 °F 30.2 °F 70% 30.43 in 10.0 mi SE 6.9 mph - N/A   Clear
10:15 PM 39.2 °F 35.0 °F 30.2 °F 70% 30.43 in 10.0 mi SSE 5.8 mph - N/A   Clear
10:35 PM 37.4 °F 33.8 °F 30.2 °F 75% 30.44 in 10.0 mi SSE 4.6 mph - N/A   Clear
11:15 PM 32.0 °F 28.7 °F 26.6 °F 80% 30.45 in - East 3.5 mph - N/A   Clear
11:35 PM 32.0 °F 28.7 °F 28.4 °F 87% 30.46 in - ESE 3.5 mph - N/A   Unknown
11:55 PM 30.2 °F 25.4 °F 26.6 °F 86% 30.46 in 8.0 mi ESE 4.6 mph - N/A   Clear